Weather History for Boscobel, WI

Change the Weather History Date:

Sunday, December 25, 2011

  Actual Average (KPDC) Record (KPDC)
Temperature  
Mean Temperature 1 °C -  
Max Temperature 8 °C -3 °C 10 °C (1982)
Min Temperature -5 °C -12 °C -31 °C (2000)
Degree Days  
Heating Degree Days 30    
Moisture  
Dew Point -4 °C    
Average Humidity 64    
Maximum Humidity 88    
Minimum Humidity 44    
Precipitation  
Precipitation 0.00 mm - - ()
Sea Level Pressure  
Sea Level Pressure 1023 hPa    
Wind  
Wind Speed 10 km/h (West)    
Max Wind Speed 21 km/h    
Max Gust Speed 40 km/h    
Visibility 15 kilometers    
Events      
Averages and records for this station are not official NWS values.
T = Trace of Precipitation, MM = Missing Value Source: NWS Daily Summary

Daily Weather History Graph

Daily Weather History Graph

Search for Another Location

Airport:

Trip Planner

Search our weather history database for the weather conditions in past years. The results will help you decide how hot, cold, wet, or windy it might be!

Date:

Astronomy

Dec. 25, 2011 Rise Set
Actual Time 7:32 AM CST 4:32 PM CST
Civil Twilight 7:00 AM CST 5:05 PM CST
Nautical Twilight 6:24 AM CST 5:41 PM CST
Astronomical Twilight 5:49 AM CST 6:15 PM CST
Moon 8:10 AM CST (12/25) 5:55 PM CST (12/25)
Length of Visible Light 10h 04m
Length of Day
8h 59m
New Moon, 1% of the Moon is Illuminated
Dec 25
New Moon
Jan 1
First Quarter
Jan 9
Full
Jan 16
Last Quarter
Jan 23
New

Hourly Weather History & Observations

Time (CST) Temp. Windchill Dew Point Humidity Pressure Visibility Wind Dir Wind Speed Gust Speed Precip Events Conditions
12:53 AM 3.9 °C 1.1 °C -3.3 °C 60% 1018.4 hPa 16.1 km SSW 11.1 km/h / 3.1 m/s - N/A   Clear
1:53 AM 3.3 °C 0.8 °C -3.9 °C 60% 1018.0 hPa 16.1 km SSW 9.3 km/h / 2.6 m/s - N/A   Clear
2:53 AM 2.2 °C 0.0 °C -3.9 °C 64% 1017.8 hPa 16.1 km SW 7.4 km/h / 2.1 m/s - N/A   Clear
3:53 AM 1.7 °C -1.5 °C -4.4 °C 64% 1017.9 hPa 16.1 km SW 11.1 km/h / 3.1 m/s - N/A   Clear
4:53 AM 1.1 °C -2.2 °C -5.0 °C 64% 1018.1 hPa 16.1 km SSW 11.1 km/h / 3.1 m/s - N/A   Clear
5:53 AM 1.1 °C -2.6 °C -5.6 °C 61% 1018.5 hPa 16.1 km SW 13.0 km/h / 3.6 m/s - N/A   Clear
6:53 AM 2.2 °C -0.9 °C -5.0 °C 59% 1019.3 hPa 16.1 km West 11.1 km/h / 3.1 m/s - N/A   Clear
7:53 AM 2.2 °C -1.3 °C -5.0 °C 59% 1020.4 hPa 16.1 km West 13.0 km/h / 3.6 m/s - N/A   Clear
8:53 AM 2.8 °C 0.2 °C -4.4 °C 59% 1021.4 hPa 16.1 km Variable 9.3 km/h / 2.6 m/s - N/A   Clear
9:53 AM 4.4 °C 0.8 °C -3.9 °C 55% 1022.2 hPa 16.1 km WNW 16.7 km/h / 4.6 m/s 29.6 km/h / 8.2 m/s N/A   Clear
10:53 AM 5.6 °C 2.5 °C -3.3 °C 53% 1023.0 hPa 16.1 km WNW 14.8 km/h / 4.1 m/s 27.8 km/h / 7.7 m/s N/A   Clear
11:53 AM 6.7 °C 4.2 °C -3.3 °C 49% 1023.0 hPa 16.1 km West 13.0 km/h / 3.6 m/s 29.6 km/h / 8.2 m/s N/A   Clear
12:53 PM 6.7 °C 3.2 °C -3.3 °C 49% 1023.0 hPa 16.1 km NW 20.4 km/h / 5.7 m/s 40.7 km/h / 11.3 m/s N/A   Clear
1:53 PM 7.2 °C 3.8 °C -3.3 °C 48% 1023.2 hPa 16.1 km WNW 20.4 km/h / 5.7 m/s 29.6 km/h / 8.2 m/s N/A   Scattered Clouds
2:53 PM 7.8 °C 4.6 °C -3.9 °C 44% 1023.9 hPa 16.1 km NW 20.4 km/h / 5.7 m/s 29.6 km/h / 8.2 m/s N/A   Clear
3:53 PM 6.1 °C 4.2 °C -3.9 °C 49% 1024.7 hPa 16.1 km NW 9.3 km/h / 2.6 m/s - N/A   Clear
5:53 PM -0.6 °C - -5.0 °C 72% 1026.4 hPa 14.5 km Calm Calm - N/A   Clear
6:53 PM -1.1 °C - -4.4 °C 79% 1026.8 hPa 16.1 km Calm Calm - N/A   Clear
7:53 PM -2.8 °C - -5.6 °C 81% 1027.0 hPa 9.7 km Calm Calm - N/A   Haze
8:53 PM -3.3 °C - -6.1 °C 81% 1026.8 hPa 16.1 km Calm Calm - N/A   Clear
9:53 PM -3.9 °C - -6.1 °C 85% 1026.6 hPa 12.9 km Calm Calm - N/A   Clear
10:53 PM -5.0 °C - -6.7 °C 88% 1026.8 hPa 12.9 km Calm Calm - N/A   Clear
11:53 PM -5.0 °C - -6.7 °C 88% 1026.8 hPa 16.1 km Calm Calm - N/A   Clear